Wind_Speed
8 8 8 7 6 6 7 7 8 8 8 8 8 8 8 8 8 7 6 5 4 3 3 2 1 0 1 1 1 1 2 2 2 2 3 3 3 4 4 5 5 5 5
9 9 9 9 8 8 9 9 9 9 9 9 10 10 10 10 9 9 8 7 6 5 4 4 3 2 2 1 1 0 1 1 1 1 2 2 2 3 3 4 4 4 4
11 11 11 11 10 10 10 10 10 10 11 11 11 11 11 11 11 11 10 9 8 7 6 5 5 4 3 3 2 2 1 1 1 1 1 1 1 2 2 3 3 3 4
12 12 11 12 12 12 12 12 12 12 12 12 12 12 12 12 12 12 12 11 10 9 8 7 6 6 5 4 4 4 3 2 2 2 1 1 0 1 1 2 2 2 3
13 13 12 12 12 12 13 13 13 13 13 13 13 13 13 13 14 14 14 12 12 11 10 9 8 7 6 6 6 5 5 4 3 3 3 2 1 1 1 1 1 1 1
14 14 13 13 13 13 13 13 13 14 14 15 15 14 14 15 15 15 15 14 13 12 11 10 10 9 8 8 7 7 7 5 5 4 4 4 3 2 2 1 0 0 0
14 14 13 13 13 14 14 14 14 14 15 16 16 16 15 15 15 16 16 15 15 14 13 13 11 10 10 10 9 9 8 7 7 6 6 5 5 4 3 2 2 1 1
15 14 13 13 14 14 14 14 14 15 15 16 16 16 17 17 17 17 17 16 16 15 15 14 13 13 12 12 11 11 10 10 9 8 8 7 7 6 5 4 4 3 3
14 14 13 13 13 13 14 14 14 15 15 16 16 17 17 17 18 18 17 17 17 16 16 15 15 15 14 13 13 13 12 11 11 10 9 9 8 8 7 6 6 5 5
15 14 13 13 12 13 14 15 16 16 16 16 17 18 18 18 18 18 18 18 18 17 17 17 17 17 16 16 15 15 14 14 13 11 10 11 10 10 10 9 8 7 7
16 15 13 13 14 14 14 15 16 17 18 18 18 19 19 19 19 19 19 19 19 19 19 19 18 18 18 17 17 17 16 16 15 13 13 13 12 11 11 11 10 9 9
17 16 14 14 14 15 15 17 17 18 19 19 20 20 20 21 21 21 20 20 21 20 20 20 20 19 19 19 18 18 18 18 17 15 14 15 14 13 13 13 12 12 11
17 15 14 15 15 15 17 18 18 19 20 20 21 21 22 22 22 22 22 22 22 22 22 22 21 21 21 20 20 19 19 19 19 17 17 17 17 16 15 15 14 13 13
16 16 14 16 16 16 18 19 19 19 20 20 21 22 23 23 23 22 22 23 22 22 23 23 23 23 22 21 21 20 20 19 20 19 18 19 19 18 17 17 17 16 15
18 15 15 16 16 17 19 19 20 20 21 21 22 22 23 23 23 24 24 23 23 23 23 24 24 23 22 21 21 21 22 21 21 20 19 20 20 20 20 19 19 18 18
18 17 17 18 18 19 20 21 22 22 22 23 23 23 23 24 25 26 26 25 24 24 24 25 24 24 23 23 22 22 23 23 23 22 22 21 21 22 22 22 20 20 20
18 18 18 19 19 20 20 21 23 24 24 25 25 25 25 24 25 25 25 26 27 26 26 26 25 25 25 25 25 24 24 24 24 23 24 23 24 24 23 22 22 22 21
20 20 19 19 20 21 22 23 23 25 26 26 26 26 26 26 26 26 27 27 28 27 27 27 26 26 27 27 26 25 25 25 25 25 25 25 25 24 23 23 23 23 23
21 21 21 21 21 22 23 24 24 25 26 27 26 26 27 27 27 28 29 29 29 30 29 29 28 28 27 28 28 28 27 26 26 26 26 26 25 24 24 24 24 25 24
22 22 22 22 23 23 24 25 26 26 27 28 28 28 28 28 29 29 30 30 31 30 30 30 31 30 29 29 29 28 28 28 27 28 28 27 26 25 25 25 26 26 25
22 22 22 23 24 25 26 26 27 28 28 29 29 29 30 30 30 30 31 31 32 32 32 32 31 30 30 31 31 30 29 29 28 29 29 28 27 27 27 27 27 27 26
22 23 24 25 26 26 27 27 27 28 29 30 30 30 31 31 31 31 32 33 33 33 33 33 33 32 32 32 32 32 32 31 30 30 30 29 28 29 29 28 28 28 28
23 24 25 25 27 27 28 28 28 29 30 30 31 31 32 32 32 32 33 34 34 33 33 33 33 32 32 33 33 32 31 31 31 31 31 31 30 30 31 30 30 30 29
25 25 26 27 28 28 28 29 29 30 31 31 32 32 32 32 31 32 32 33 34 33 32 32 32 32 31 32 32 32 32 32 32 31 31 31 31 31 32 32 32 32 32
26 27 28 28 29 29 29 30 30 30 31 31 31 32 32 31 31 31 31 31 32 31 31 31 32 32 31 31 31 32 32 33 32 31 30 31 31 31 31 32 32 33 32
26 27 28 29 29 30 30 31 31 31 31 30 31 31 31 31 31 31 31 31 31 31 31 31 32 31 31 31 32 32 32 32 31 31 31 30 31 31 31 32 32 32 32
Wind_Direction
240 237 235 237 236 234 232 234 238 240 241 237 236 240 243 239 238 236 234 234 232 232 236 241 248 284 2 21 59 75 88 92 94 88 84 78 72 70 73 69 63 59 57
245 243 243 243 243 242 241 240 242 243 244 243 244 246 246 244 243 241 241 242 242 242 245 251 260 270 278 282 271 252 116 105 119 113 99 88 76 75 77 69 63 60 56
248 247 248 247 248 247 246 246 245 246 247 247 248 250 250 249 245 242 244 246 247 248 250 254 259 263 266 267 261 257 242 212 198 178 148 107 80 77 80 70 64 60 55
249 247 249 250 251 249 249 251 251 250 250 251 249 253 254 253 250 246 247 249 251 252 254 255 258 260 261 263 260 256 254 244 230 212 207 203 152 100 90 69 69 63 56
249 250 252 253 251 251 251 253 254 253 253 252 251 254 256 257 257 254 251 252 253 252 253 255 258 259 261 261 260 258 257 252 244 231 220 226 223 215 170 62 66 69 56
253 253 255 255 252 254 255 256 256 257 256 255 253 254 255 257 259 256 253 251 253 254 252 255 258 258 261 261 260 260 257 255 252 242 234 231 235 239 224 244 236 90 12
257 257 257 256 255 256 258 258 258 259 260 258 255 256 256 257 257 256 253 253 255 255 255 256 257 258 259 260 260 260 259 255 255 246 238 238 238 237 234 237 241 249 276
258 257 258 259 257 257 258 258 259 259 261 260 258 258 258 258 257 256 255 255 256 256 256 256 258 258 258 260 260 260 260 258 254 248 243 243 241 239 237 235 244 251 256
258 260 260 260 259 258 259 259 259 258 260 261 261 263 261 260 259 259 258 256 255 255 256 256 257 259 258 259 260 260 260 259 256 252 248 248 247 244 243 241 244 249 253
258 259 261 260 259 261 260 259 258 260 263 263 263 264 263 262 262 260 258 256 256 257 258 257 257 258 259 259 259 257 257 258 256 254 250 248 247 246 246 246 247 248 253
258 261 263 262 261 263 263 261 261 263 265 265 264 264 264 263 263 260 257 257 257 257 258 258 256 257 258 259 259 257 256 257 258 256 251 251 248 247 248 248 250 250 252
261 263 265 267 266 263 265 265 265 266 264 263 264 265 264 263 263 260 258 259 258 257 258 258 256 257 258 259 258 257 256 257 258 255 253 253 252 249 250 251 251 251 252
263 260 262 268 267 267 268 266 265 265 264 265 264 265 266 265 263 260 259 259 260 259 259 259 258 257 258 258 257 256 256 257 256 255 255 255 255 254 253 253 252 253 252
263 269 265 271 271 271 269 267 264 266 265 267 264 267 268 266 264 262 261 261 263 262 258 259 260 259 259 259 257 256 257 257 257 256 258 256 257 253 253 255 254 253 250
264 270 273 274 274 276 274 271 267 270 269 268 267 266 267 266 265 261 261 263 263 263 262 262 261 260 259 261 260 257 255 258 259 259 257 256 260 257 255 256 256 255 253
268 277 281 284 285 282 278 276 275 274 273 272 270 269 267 269 268 266 262 263 265 266 264 262 261 261 262 262 263 260 259 259 260 257 255 254 257 256 254 254 256 256 254
280 285 283 285 286 283 279 277 275 273 273 272 271 273 271 271 270 267 266 266 267 269 265 265 265 264 263 265 266 264 262 262 260 257 255 255 256 255 253 252 255 256 255
287 287 286 284 284 282 279 277 274 273 272 272 273 274 273 272 271 270 269 267 267 268 266 264 268 267 265 265 265 264 263 262 260 260 258 257 258 257 255 255 257 257 256
288 287 286 285 283 282 280 277 274 272 271 272 274 275 274 272 271 270 269 268 269 269 265 264 264 267 266 264 263 265 264 262 261 262 262 261 262 261 259 258 259 258 258
285 285 284 284 283 282 280 278 276 274 273 273 274 275 275 274 273 271 270 269 268 269 267 266 265 266 266 265 263 265 265 263 261 261 263 262 262 261 259 258 260 258 258
281 282 281 283 283 282 281 279 278 276 275 274 274 275 275 275 273 272 272 270 269 269 268 267 266 265 265 264 263 264 265 264 263 261 261 262 262 261 259 258 261 260 258
280 280 279 280 281 281 281 280 279 278 276 277 276 276 275 274 274 274 274 273 271 269 269 268 267 266 265 263 263 263 262 263 263 261 261 261 262 260 259 259 259 260 260
279 279 280 280 281 281 281 281 279 277 277 278 278 277 276 276 274 273 273 273 271 271 271 269 268 267 265 261 260 260 260 262 261 261 260 260 261 260 260 260 260 261 261
279 279 281 282 282 282 282 282 281 279 277 277 277 277 276 275 274 273 273 272 271 269 269 270 269 268 265 262 261 260 260 260 260 260 259 260 260 259 260 261 261 263 262
281 281 282 282 281 281 282 282 282 281 279 277 277 277 276 275 274 273 273 271 270 268 267 268 269 270 267 263 262 262 262 261 262 260 260 259 259 259 259 261 263 263 262
283 284 284 283 282 282 283 282 282 282 281 279 278 279 278 276 275 273 273 271 271 270 268 268 270 270 270 268 266 265 263 263 260 259 260 259 261 261 261 263 263 263 263
Height
5895 5895 5896 5896 5897 5897 5898 5898 5899 5899 5900 5901 5901 5902 5902 5902 5902 5903 5903 5903 5902 5902 5902 5902 5902 5901 5901 5901 5900 5900 5900 5900 5901 5901 5901 5901 5901 5901 5901 5901 5901 5901 5901
5894 5895 5895 5896 5896 5896 5897 5897 5898 5898 5899 5900 5900 5901 5901 5901 5902 5902 5902 5902 5902 5902 5902 5901 5901 5901 5901 5900 5900 5900 5900 5900 5900 5901 5901 5901 5901 5901 5901 5901 5901 5901 5901
5893 5894 5894 5895 5895 5895 5896 5896 5897 5897 5898 5898 5899 5900 5900 5900 5900 5901 5901 5901 5901 5901 5901 5901 5901 5900 5900 5900 5900 5900 5900 5900 5900 5900 5901 5901 5901 5901 5901 5901 5901 5901 5902
5892 5893 5893 5893 5894 5894 5895 5895 5895 5896 5896 5897 5898 5898 5898 5899 5899 5899 5900 5900 5900 5900 5900 5900 5900 5900 5900 5900 5899 5899 5899 5899 5900 5900 5900 5900 5901 5901 5901 5901 5901 5901 5902
5890 5891 5891 5892 5892 5893 5893 5894 5894 5894 5895 5895 5896 5896 5896 5897 5897 5898 5898 5898 5898 5898 5898 5899 5899 5899 5899 5899 5899 5899 5899 5899 5899 5900 5900 5900 5900 5900 5901 5901 5901 5901 5902
5888 5889 5890 5890 5891 5891 5891 5892 5892 5893 5893 5893 5893 5894 5894 5895 5895 5896 5896 5896 5896 5897 5897 5897 5898 5898 5898 5898 5898 5898 5898 5898 5899 5899 5899 5898 5899 5900 5900 5900 5901 5901 5901
5886 5887 5888 5888 5889 5889 5889 5890 5890 5890 5891 5891 5891 5892 5892 5892 5893 5893 5894 5894 5894 5894 5895 5895 5896 5896 5897 5897 5897 5897 5897 5897 5898 5898 5898 5898 5898 5899 5899 5900 5900 5901 5901
5884 5884 5885 5885 5886 5886 5887 5887 5888 5888 5888 5888 5889 5889 5890 5890 5890 5891 5891 5891 5892 5892 5893 5893 5894 5894 5895 5895 5895 5895 5896 5896 5897 5897 5897 5898 5898 5898 5898 5899 5899 5900 5900
5881 5881 5882 5882 5883 5883 5884 5885 5885 5885 5886 5886 5886 5887 5887 5887 5887 5888 5888 5888 5889 5889 5890 5890 5891 5892 5892 5893 5893 5894 5894 5894 5895 5895 5896 5896 5897 5897 5897 5898 5898 5899 5899
5878 5878 5879 5879 5880 5881 5881 5882 5882 5882 5883 5883 5883 5883 5884 5884 5884 5885 5885 5885 5886 5886 5887 5887 5888 5889 5890 5891 5891 5891 5892 5892 5892 5893 5894 5894 5895 5895 5896 5896 5897 5897 5898
5874 5875 5875 5875 5876 5877 5878 5878 5879 5879 5879 5880 5880 5880 5880 5881 5881 5882 5882 5882 5883 5883 5883 5884 5885 5886 5887 5888 5888 5888 5889 5889 5889 5891 5891 5891 5892 5893 5894 5895 5895 5896 5896
5869 5870 5871 5871 5872 5874 5875 5875 5875 5875 5875 5876 5876 5876 5877 5877 5878 5878 5878 5879 5879 5879 5880 5881 5882 5883 5883 5884 5885 5885 5886 5887 5887 5887 5887 5888 5890 5890 5891 5892 5893 5894 5894
5865 5865 5867 5869 5869 5870 5871 5871 5871 5871 5871 5871 5872 5872 5872 5873 5873 5874 5875 5875 5875 5875 5876 5877 5878 5879 5880 5880 5881 5882 5883 5883 5884 5885 5885 5886 5887 5888 5889 5890 5890 5891 5892
5862 5861 5862 5865 5865 5866 5866 5865 5866 5866 5866 5866 5867 5867 5868 5868 5869 5869 5870 5870 5871 5871 5872 5873 5873 5874 5875 5876 5877 5878 5879 5879 5880 5882 5883 5884 5884 5885 5885 5886 5888 5888 5889
5859 5857 5859 5860 5861 5862 5862 5861 5860 5861 5861 5861 5862 5862 5862 5863 5864 5864 5865 5866 5866 5867 5867 5868 5868 5869 5870 5872 5872 5873 5874 5875 5875 5877 5878 5879 5880 5881 5882 5883 5884 5885 5886
5855 5855 5857 5857 5858 5859 5859 5858 5858 5858 5859 5859 5858 5857 5857 5859 5859 5860 5860 5860 5861 5862 5862 5863 5863 5864 5866 5867 5868 5869 5870 5871 5871 5872 5873 5872 5875 5876 5877 5879 5879 5880 5881
5851 5852 5853 5853 5854 5855 5855 5855 5854 5854 5854 5855 5854 5852 5852 5853 5854 5854 5855 5856 5856 5857 5857 5857 5857 5858 5860 5862 5863 5864 5865 5866 5867 5867 5868 5868 5870 5871 5872 5873 5874 5876 5877
5848 5848 5848 5849 5849 5850 5850 5850 5850 5849 5849 5849 5848 5848 5848 5848 5849 5849 5850 5851 5851 5852 5851 5852 5853 5853 5854 5856 5857 5858 5859 5860 5861 5862 5863 5864 5864 5865 5866 5867 5869 5871 5872
5845 5845 5845 5845 5845 5845 5845 5845 5845 5844 5844 5844 5843 5843 5842 5843 5843 5844 5844 5845 5846 5846 5846 5847 5847 5848 5849 5850 5851 5852 5853 5854 5856 5856 5857 5857 5858 5859 5860 5862 5864 5866 5867
5842 5842 5842 5841 5841 5840 5840 5840 5839 5839 5839 5838 5838 5838 5838 5837 5837 5838 5838 5839 5839 5839 5840 5840 5840 5842 5843 5844 5845 5846 5847 5848 5849 5850 5851 5852 5853 5854 5854 5856 5858 5860 5861
5838 5838 5838 5837 5836 5835 5835 5834 5833 5833 5833 5833 5832 5832 5832 5832 5831 5831 5831 5832 5832 5833 5833 5833 5834 5835 5836 5837 5838 5840 5841 5842 5843 5844 5845 5847 5848 5849 5850 5851 5852 5853 5854
5834 5834 5833 5832 5831 5830 5829 5828 5827 5827 5826 5826 5826 5826 5826 5825 5825 5825 5825 5825 5825 5826 5826 5826 5827 5827 5829 5830 5832 5833 5834 5836 5836 5837 5839 5841 5842 5842 5843 5845 5846 5847 5848
5829 5829 5828 5827 5826 5825 5823 5822 5822 5821 5820 5820 5820 5819 5819 5818 5818 5818 5818 5818 5818 5818 5819 5819 5820 5821 5821 5823 5824 5825 5827 5828 5830 5831 5832 5833 5835 5836 5837 5838 5839 5840 5841
5824 5823 5822 5821 5820 5819 5818 5817 5815 5815 5814 5814 5813 5812 5812 5811 5811 5811 5811 5811 5811 5811 5812 5812 5813 5814 5814 5815 5817 5817 5819 5820 5822 5824 5825 5826 5827 5829 5830 5831 5831 5833 5834
5819 5818 5817 5815 5814 5813 5812 5811 5809 5808 5807 5807 5806 5805 5804 5804 5804 5804 5804 5803 5803 5804 5804 5805 5806 5806 5807 5808 5809 5810 5811 5813 5814 5816 5818 5819 5820 5821 5823 5824 5825 5826 5827
5814 5812 5811 5810 5808 5807 5805 5804 5803 5802 5800 5800 5799 5798 5797 5796 5796 5796 5796 5796 5796 5796 5797 5798 5798 5799 5800 5801 5801 5802 5804 5805 5807 5808 5810 5811 5812 5814 5815 5816 5817 5818 5819